Regional Weather Roundup
Issued by NWS

Home | Current Version | Previous Version | Graphics & Text | Print | Product List | Glossary Off
Versions: 1 2 3 4 5 6 7 8 9 10 11 12 13 14 15 16 17 18 19 20 21 22 23 24 25 26 27 28 29 30 31 32 33 34 35 36 37 38 39 40 41 42 43 44 45 46 47 48 49 50

000
ASUS43 KDTX 021001
RWRMI
MICHIGAN HOURLY REGIONAL WEATHER ROUNDUP
NATIONAL WEATHER SERVICE DETROIT/PONTIAC MI
500 AM EST MON MAR 02 2015

NOTE: "FAIR" INDICATES FEW OR NO CLOUDS BELOW 12,000 FEET WITH NO
SIGNIFICANT WEATHER AND/OR OBSTRUCTION TO VISIBILITY.

MIZ047>049-052>055-059>063-066>070-074>076-081>083-021100-
SOUTHEAST LOWER MICHIGAN

CITY           SKY/WX    TMP DP  RH WIND       PRES   REMARKS
ADRIAN         PTCLDY    20  14  77 NW9       30.32R WCI   9
ALMA           CLEAR     19  10  70 W8        30.28R WCI   8
ANN ARBOR      CLOUDY    22  17  81 W10       30.29R WCI  11
BAD AXE        CLEAR     19  12  74 W9        30.22R WCI   8
CARO           CLEAR     18  11  71 W7        30.24R WCI   9
DETROIT CITY   CLEAR     24  14  65 NW9       30.28R WCI  14
DETROIT        LGT SNOW  23  17  78 W7        30.30R WCI  15
FLINT          CLEAR     20  11  68 W10       30.27R WCI   9
GROSSE ILE     FLURRIES  23  18  80 W9        30.29R WCI  13
HILLSDALE      CLEAR     18  16  90 W10       30.30R WCI   6
HOWELL         CLOUDY    22  16  76 W10       30.28R WCI  11

CITY           SKY/WX    TMP DP  RH WIND       PRES   REMARKS
JACKSON        CLEAR     20  13  74 NW9       30.30R WCI   9
LAMBERTVILLE   PTCLDY    21  16  79 W8        30.33R WCI  12
LANSING        CLEAR     19   9  65 W10       30.30R WCI   7
LAPEER         FAIR      20  11  69 W10G16    30.24R WCI   9
MASON          CLEAR     20  12  70 W10       30.30R WCI   9
MONROE         FLURRIES  21  16  79 W10       30.29R WCI  10
MT. CLEMENS    CLEAR     23  13  64 W13       30.24R WCI  11
PONTIAC        CLEAR     20  12  71 W15       30.25R WCI   6
PORT HOPE        N/A     23  11  60 W14G23    30.19R WCI  11
PORT HURON     CLOUDY    23  12  63 NW13G21   30.24R WCI  11
TRI CITIES     CLEAR     15   8  73 W9        30.27R WCI   3
TROY           CLEAR     24  15  66 W12       30.29R WCI  13
SAGINAW HB     CLEAR     19  12  73 W8        30.26R WCI   9
$$
MIZ043>046-050>051-056>058-064>065-071>073-077>080-021100-
SOUTHWEST LOWER MICHIGAN

CITY           SKY/WX    TMP DP  RH WIND       PRES   REMARKS
BATTLE CREEK   CLEAR     20  10  65 W10       30.32R WCI   9
BENTON HARBOR  CLEAR     22  14  71 W7        30.38R WCI  13
BIG RAPIDS     CLEAR     18  10  73 W6        30.25S WCI   9
COLDWATER      CLEAR     15  11  86 W7        30.33R WCI   5
FREMONT        FAIR      17   7  64 W7        30.30R WCI   8
HOLLAND        PTCLDY    25  11  55 NW9       30.35R WCI  15
GRAND RAPIDS   CLEAR     21  10  62 W8        30.32R WCI  11
IONIA          FAIR      21  10  64 W8        30.29R WCI  11
KALAMAZOO      PTCLDY    20  10  65 W9        30.34R WCI   9
LUDINGTON      PTCLDY    23  12  62 NW10G18   30.32R WCI  13
MARSHALL       CLEAR     18  10  71 W8        30.31R WCI   8
MOUNT PLEASANT CLEAR     19  10  67 W7        30.26R WCI  10
MUSKEGON       CLEAR     24  13  62 NW9       30.33R WCI  14
SOUTH HAVEN    PTCLDY    24  14  65 NW7       30.37R WCI  16
$$
MIZ016>042-021100-
NORTHERN LOWER MICHIGAN

CITY           SKY/WX    TMP DP  RH WIND       PRES   REMARKS
ALPENA         CLEAR     18  10  71 W9        30.17R WCI   7
BEAVER ISLAND  MOCLDY    16  13  85 W6        30.23R WCI   8
BELLAIRE       MOCLDY    20  11  68 W6        30.26R WCI  12
CADILLAC       FLURRIES  16   9  74 W8        30.21R WCI   5
CHARLEVOIX     PTCLDY    17  11  77 W13       30.27R WCI   4
FRANKFORT      MOCLDY    22  13  68 NW12G22   30.28R WCI  11
GAYLORD        FLURRIES  17  11  77 W9G20     30.16R WCI   6
GRAYLING       FLURRIES  18  11  74 NW15G25   30.20R WCI   4
HARBOR SPRINGS CLEAR     17  11  76 W5        30.21R WCI  10
HOUGHTON LAKE  CLEAR     15   8  73 W8        30.20R WCI   4
MANISTEE       MOCLDY    23  10  58 NW15G25   30.30R WCI  10
OSCODA         CLEAR     18  11  75 W10       30.19R WCI   6
PELLSTON       CLEAR     18  10  71 W13       30.21R WCI   5
ROGERS CITY    CLEAR     19  12  76 W7G20     30.17R WCI   9
TRAVERSE CITY  FAIR      21   9  59 NW12      30.26R WCI   9
$$
MIZ007>008-015-021100-
EASTERN UPPER MICHIGAN

CITY           SKY/WX    TMP DP  RH WIND       PRES   REMARKS
KINROSS        CLOUDY    18  16  93 NW14G20   30.13R WCI   4
MACKINAC ISLAN PTCLDY    16  11  78 W9G18     30.17R WCI   5
NEWBERRY       CLOUDY    17  11  78 NW14G21   30.18R WCI   3
S. S. MARIE    FLURRIES  19  11  70 NW15G24   30.13R WCI   5
MUNISING         N/A     20   8  60 N16G22    30.24R WCI   6
$$
MIZ004>006-011>014-085-021100-
CENTRAL UPPER MICHIGAN

CITY           SKY/WX    TMP DP  RH WIND       PRES   REMARKS
MANISTIQUE     FLURRIES  17  15  90 W6        30.23R WCI   9
ESCANABA       CLEAR     16   7  67 NW8       30.29R WCI   5
MENOMINEE      CLEAR     12   3  67 W6        30.30R WCI   3
SAWYER-GWINN   PTCLDY    13   4  65 NW9       30.22R WCI   1
$$
MIZ001>003-009>011-084-021100-
WESTERN UPPER MICHIGAN

CITY           SKY/WX    TMP DP  RH WIND       PRES   REMARKS
IRON MOUNTAIN  CLEAR     14   5  67 NW12      30.24R WCI   0
HOUGHTON       CLEAR     13   3  64 W14       30.22R WCI  -2
COPPER HARBOR    N/A     15   5  64 N18G24    30.22R WCI  -2
IRONWOOD       CLOUDY    16   7  67 W12       30.28R WCI   3
$$

ABBREVIATIONS USED IN REMARKS
   TC - TEMPERATURE IN CELSIUS
  WCI - WIND CHILL INDEX
   HX - HEAT INDEX
  VSB - VISIBILITY




USA.gov is the U.S. government's official web portal to all federal, state and local government web resources and services.